Flag for U.S.A. Weather past 2 weeks in Waterbury, Connecticut, U.S.A.

36 °F


Feels Like: 30 °F
Forecast: 27 / 42 °F
Wind: 7 mph from Northeast

Location: Oxford

Current Time: Nov 30, 2015 at 12:53:34 PM

Latest Report: Nov 30, 2015 at 11:50 AM

Visibility: 10 mi

Pressure: 30.45 "Hg

Humidity: 48%

Dew point: 18 °F

Location of WaterburyLocation

Historic Weather in Waterbury — Graph


Waterbury temperature yesterday

Maximum temperature yesterday: 45 °F (at 1:50 PM)
Minimum temperature yesterday: 30 °F (at 10:15 PM)
Average temperature yesterday: 35 °F

Past Weeks' High & Low Weather Summary

High63 °F (Nov 19, 10:55 PM)77% (Nov 19, 5:35 AM)30.82 "Hg (Nov 19, 5:35 AM)
Low19 °F (Nov 24, 4:55 AM)28% (Nov 23, 2:50 PM)29.86 "Hg (Nov 22, 11:55 PM)
Average42 °F56%30.31 "Hg
* Reported Nov 15 11:50 AM — Nov 30 11:50 AM, Waterbury, Weather by CustomWeather, © 2015

Note: Actual official high and low records may vary slightly from our data, if they occured in-between our weather recording intervals... More about our weather records


Waterbury weather history for previous 24 hours

Time TempWeatherWind HumidityBarometerVisibility
11:50 AM
Mon, Nov 30
36 °FOvercast.7 mph48%30.45 "Hg10 mi
10:55 AM34 °FOvercast.7 mph51%30.47 "Hg10 mi
9:45 AM32 °FPartly sunny.9 mph55%30.46 "Hg10 mi
8:50 AM30 °FOvercast.12 mph55%30.46 "Hg10 mi
7:55 AM28 °FOvercast.12 mph55%30.45 "Hg10 mi
6:55 AM28 °FOvercast.12 mph55%30.44 "Hg10 mi
6:00 AM28 °FOvercast.7 mph55%30.43 "Hg10 mi
5:35 AM28 °FOvercast.6 mph55%30.42 "Hg10 mi
5:15 AM28 °FOvercast.8 mph55%30.41 "Hg10 mi
4:55 AM28 °FPassing clouds.10 mph55%30.40 "Hg10 mi
4:35 AM28 °FPassing clouds.12 mph51%30.39 "Hg10 mi
4:15 AM28 °FPassing clouds.10 mph51%30.40 "Hg10 mi
3:55 AM28 °FClear.12 mph55%30.40 "Hg10 mi
3:35 AM28 °FClear.8 mph55%30.39 "Hg10 mi
2:55 AM28 °FClear.8 mph55%30.40 "Hg10 mi
2:15 AM28 °FClear.9 mph55%30.40 "Hg10 mi
1:55 AM30 °FClear.10 mph51%30.39 "Hg10 mi
1:35 AM30 °FClear.10 mph51%30.40 "Hg10 mi
12:55 AM30 °FClear.8 mph51%30.40 "Hg10 mi
12:35 AM30 °FClear.6 mph51%30.41 "Hg10 mi
12:15 AM30 °FClear.7 mph51%30.41 "Hg10 mi
11:55 PM
Sun, Nov 29
30 °FClear.7 mph51%30.40 "Hg10 mi
11:35 PM30 °FClear.6 mph51%30.38 "Hg10 mi
10:35 PM30 °FClear.7 mph51%30.37 "Hg10 mi
10:15 PM30 °FClear.7 mph51%30.36 "Hg10 mi
9:55 PM32 °FClear.9 mph51%30.36 "Hg10 mi
9:35 PM32 °FClear.10 mph51%30.36 "Hg10 mi
9:15 PM32 °FClear.6 mph51%30.34 "Hg10 mi
7:50 PM34 °FPassing clouds.10 mph48%30.32 "Hg10 mi
6:50 PM34 °FPassing clouds.13 mph48%30.29 "Hg10 mi
5:50 PM36 °FPassing clouds.15 mph41%30.27 "Hg10 mi
3:50 PM43 °FPassing clouds.12 mph39%30.22 "Hg10 mi
2:50 PM45 °FPassing clouds.12 mph39%30.20 "Hg10 mi
1:50 PM45 °FPassing clouds.7 mph39%30.21 "Hg10 mi
12:50 PM43 °FPassing clouds.3 mph46%30.21 "Hg10 mi
Weather by CustomWeather, © 2015

See weather overviewHow to use our weather pages